| time (UTC) | temp F | wind direction | speed MPH | gust MPH | rain 1hr in | rain 24hr in | rain mn in | humidity % | barometer mb |
| 20260831053122 | 63 | 69 | 0.0 | 0.0 | 0.00 | 0.00 | 0.00 | 93 | 1018.6 |
| 20260831051501 | 64 | 69 | 0.0 | 0.0 | 0.00 | 0.00 | 0.00 | 92 | 1018.7 |
| 20260831050120 | 64 | 69 | 0.0 | 0.0 | 0.00 | 0.00 | 0.00 | 92 | 1018.7 |
| 20260831044605 | 64 | 69 | 0.0 | 0.0 | 0.00 | 0.00 | 0.00 | 91 | 1018.6 |
| 20260831043002 | 65 | 69 | 0.0 | 0.0 | 0.00 | 0.00 | 0.00 | 89 | 1018.6 |
| 20260831041620 | 65 | 69 | 0.0 | 0.0 | 0.00 | 0.00 | 0.00 | 90 | 1018.6 |
| 20260831040008 | 65 | 69 | 1.0 | 3.0 | 0.00 | 0.00 | 0.00 | 89 | 1018.6 |
| 20260831034502 | 66 | 69 | 0.0 | 0.0 | 0.00 | 0.00 | 0.00 | 88 | 1018.3 |
| 20260831033113 | 67 | 69 | 0.0 | 2.0 | 0.00 | 0.00 | 0.00 | 86 | 1018.2 |
| 20260831031503 | 68 | 69 | 0.0 | 0.0 | 0.00 | 0.00 | 0.00 | 85 | 1018.4 |
| 20260831030109 | 69 | 69 | 0.0 | 2.0 | 0.00 | 0.00 | 0.00 | 81 | 1018.6 |
| 20260831024606 | 68 | 198 | 0.0 | 2.0 | 0.00 | 0.00 | 0.00 | 83 | 1018.7 |
| 20260831023003 | 68 | 242 | 0.0 | 0.0 | 0.00 | 0.00 | 0.00 | 84 | 1018.7 |
| 20260831021605 | 68 | 242 | 0.0 | 1.0 | 0.00 | 0.00 | 0.00 | 86 | 1018.4 |
| 20260831014606 | 68 | 148 | 0.0 | 2.0 | 0.00 | 0.00 | 0.00 | 86 | 1018.6 |
| 20260831013003 | 69 | 171 | 0.0 | 2.0 | 0.00 | 0.00 | 0.00 | 86 | 1018.5 |
| 20260831011601 | 69 | 171 | 0.0 | 2.0 | 0.00 | 0.00 | 0.00 | 85 | 1018.1 |
| 20260831010003 | 69 | 169 | 0.0 | 3.0 | 0.00 | 0.00 | 0.00 | 85 | 1018.2 |
| 20260831004503 | 69 | 146 | 0.0 | 0.0 | 0.00 | 0.00 | 0.00 | 87 | 1017.9 |
| 20260831003110 | 69 | 146 | 0.0 | 0.0 | 0.00 | 0.00 | 0.00 | 87 | 1017.7 |
| 20260831001516 | 69 | 146 | 0.0 | 0.0 | 0.00 | 0.00 | 0.00 | 88 | 1017.5 |
| 20260831000003 | 69 | 146 | 0.0 | 4.0 | 0.00 | 0.00 | 0.00 | 90 | 1017.3 |
| 20260830234608 | 69 | 146 | 0.0 | 3.0 | 0.00 | 0.00 | 0.00 | 91 | 1017.2 |
| 20260830233002 | 70 | 171 | 0.0 | 3.0 | 0.00 | 0.00 | 0.00 | 93 | 1017.1 |
| 20260830231615 | 70 | 220 | 0.0 | 0.0 | 0.00 | 0.00 | 0.00 | 94 | 1017.1 |
| 20260830230002 | 70 | 220 | 0.0 | 0.0 | 0.00 | 0.00 | 0.00 | 93 | 1017.0 |
| 20260830224503 | 70 | 220 | 0.0 | 2.0 | 0.00 | 0.00 | 0.00 | 93 | 1017.1 |
| 20260830223003 | 71 | 224 | 0.0 | 0.0 | 0.00 | 0.00 | 0.00 | 93 | 1017.0 |
| 20260830221603 | 71 | 224 | 0.0 | 0.0 | 0.00 | 0.00 | 0.00 | 92 | 1017.1 |
| 20260830220103 | 71 | 224 | 0.0 | 0.0 | 0.00 | 0.00 | 0.00 | 91 | 1017.0 |
| 20260830214603 | 72 | 224 | 0.0 | 1.0 | 0.00 | 0.00 | 0.00 | 90 | 1016.7 |
| 20260830213102 | 72 | 224 | 0.0 | 0.0 | 0.00 | 0.00 | 0.00 | 89 | 1016.6 |
| 20260830211502 | 73 | 224 | 0.0 | 1.0 | 0.00 | 0.00 | 0.00 | 88 | 1016.8 |
| 20260830210134 | 73 | 224 | 0.0 | 1.0 | 0.00 | 0.00 | 0.00 | 87 | 1016.8 |
| 20260830204611 | 74 | 223 | 0.0 | 3.0 | 0.00 | 0.00 | 0.00 | 86 | 1016.9 |
| 20260830203008 | 74 | 194 | 0.0 | 2.0 | 0.00 | 0.00 | 0.00 | 85 | 1017.0 |
| 20260830201502 | 75 | 189 | 0.0 | 1.0 | 0.00 | 0.00 | 0.00 | 85 | 1016.9 |
| 20260830200002 | 76 | 189 | 0.0 | 3.0 | 0.00 | 0.00 | 0.00 | 81 | 1017.1 |
| 20260830194503 | 76 | 208 | 1.0 | 4.0 | 0.00 | 0.00 | 0.00 | 79 | 1017.2 |
| 20260830193106 | 76 | 286 | 1.0 | 3.0 | 0.00 | 0.00 | 0.00 | 79 | 1017.3 |
| 20260830191504 | 75 | 267 | 1.0 | 2.0 | 0.00 | 0.00 | 0.00 | 78 | 1017.3 |
| 20260830184602 | 75 | 247 | 0.0 | 3.0 | 0.00 | 0.00 | 0.00 | 78 | 1018.0 |
| 20260830183002 | 75 | 145 | 0.0 | 2.0 | 0.00 | 0.00 | 0.00 | 77 | 1018.2 |
| 20260830181603 | 75 | 140 | 0.0 | 2.0 | 0.00 | 0.00 | 0.00 | 78 | 1018.2 |
| 20260830180002 | 75 | 142 | 0.0 | 2.0 | 0.00 | 0.00 | 0.00 | 76 | 1018.4 |
| 20260830174610 | 75 | 142 | 0.0 | 5.0 | 0.00 | 0.00 | 0.00 | 76 | 1018.5 |
| 20260830173127 | 74 | 188 | 0.0 | 1.0 | 0.00 | 0.00 | 0.00 | 78 | 1018.8 |
| 20260830171502 | 74 | 221 | 1.0 | 3.0 | 0.00 | 0.00 | 0.00 | 75 | 1018.7 |
| 20260830170106 | 74 | 223 | 0.0 | 3.0 | 0.00 | 0.00 | 0.00 | 76 | 1018.7 |
| 20260830164602 | 74 | 232 | 0.0 | 7.0 | 0.00 | 0.00 | 0.00 | 74 | 1018.9 |
| 20260830163002 | 75 | 204 | 1.0 | 5.0 | 0.00 | 0.00 | 0.00 | 70 | 1019.0 |
| 20260830161626 | 74 | 144 | 2.0 | 6.0 | 0.00 | 0.00 | 0.00 | 72 | 1019.4 |
| 20260830160002 | 73 | 134 | 0.0 | 4.0 | 0.00 | 0.00 | 0.00 | 73 | 1019.6 |
| 20260830154503 | 73 | 146 | 0.0 | 7.0 | 0.00 | 0.00 | 0.00 | 73 | 1019.6 |
| 20260830153102 | 74 | 218 | 1.0 | 4.0 | 0.00 | 0.00 | 0.00 | 69 | 1020.0 |
| 20260830151603 | 73 | 150 | 0.0 | 6.0 | 0.00 | 0.00 | 0.00 | 72 | 1020.1 |
| 20260830150115 | 72 | 140 | 0.0 | 4.0 | 0.00 | 0.00 | 0.00 | 71 | 1020.1 |
| 20260830144604 | 72 | 207 | 1.0 | 4.0 | 0.00 | 0.00 | 0.00 | 71 | 1020.1 |
| 20260830143003 | 72 | 178 | 0.0 | 3.0 | 0.00 | 0.00 | 0.00 | 74 | 1020.4 |
| 20260830141602 | 71 | 192 | 0.0 | 4.0 | 0.00 | 0.00 | 0.00 | 71 | 1020.5 |
| 20260830140002 | 71 | 159 | 0.0 | 4.0 | 0.00 | 0.00 | 0.00 | 72 | 1020.5 |
| 20260830134506 | 70 | 189 | 0.0 | 3.0 | 0.00 | 0.00 | 0.00 | 74 | 1020.5 |
| 20260830133003 | 70 | 190 | 0.0 | 2.0 | 0.00 | 0.00 | 0.00 | 78 | 1020.5 |
| 20260830131632 | 69 | 191 | 0.0 | 3.0 | 0.00 | 0.00 | 0.00 | 78 | 1020.6 |
| 20260830130001 | 67 | 186 | 0.0 | 2.0 | 0.00 | 0.00 | 0.00 | 80 | 1020.8 |
| 20260830124603 | 67 | 166 | 1.0 | 4.0 | 0.00 | 0.00 | 0.00 | 79 | 1020.9 |
| 20260830123002 | 64 | 250 | 0.0 | 2.0 | 0.00 | 0.00 | 0.00 | 84 | 1021.1 |
| 20260830121502 | 63 | 212 | 0.0 | 1.0 | 0.00 | 0.00 | 0.00 | 90 | 1021.3 |
| 20260830114614 | 60 | 173 | 0.0 | 0.0 | 0.00 | 0.00 | 0.00 | 92 | 1021.3 |
| 20260830113002 | 60 | 173 | 0.0 | 0.0 | 0.00 | 0.00 | 0.00 | 92 | 1021.3 |
| 20260830111602 | 59 | 173 | 0.0 | 0.0 | 0.00 | 0.00 | 0.00 | 92 | 1021.3 |
| 20260830110019 | 59 | 173 | 0.0 | 2.0 | 0.00 | 0.00 | 0.00 | 92 | 1021.4 |
| 20260830104618 | 59 | 173 | 0.0 | 0.0 | 0.00 | 0.00 | 0.00 | 92 | 1021.3 |
| 20260830103002 | 59 | 173 | 0.0 | 0.0 | 0.00 | 0.00 | 0.00 | 92 | 1021.1 |
| 20260830101644 | 59 | 173 | 0.0 | 0.0 | 0.00 | 0.00 | 0.00 | 91 | 1021.2 |
| 20260830100002 | 59 | 173 | 0.0 | 0.0 | 0.00 | 0.00 | 0.00 | 91 | 1021.2 |
| 20260830094502 | 59 | 173 | 0.0 | 0.0 | 0.00 | 0.00 | 0.00 | 91 | 1021.3 |
| 20260830093107 | 59 | 173 | 0.0 | 0.0 | 0.00 | 0.00 | 0.00 | 91 | 1021.3 |
| 20260830091508 | 59 | 174 | 0.0 | 2.0 | 0.00 | 0.00 | 0.00 | 91 | 1021.3 |
| 20260830084604 | 59 | 193 | 0.0 | 0.0 | 0.00 | 0.00 | 0.00 | 91 | 1021.4 |
| 20260830083003 | 59 | 193 | 0.0 | 0.0 | 0.00 | 0.00 | 0.00 | 90 | 1021.5 |
| 20260830081606 | 59 | 193 | 0.0 | 0.0 | 0.00 | 0.00 | 0.00 | 89 | 1021.6 |
| 20260830080002 | 59 | 193 | 0.0 | 0.0 | 0.00 | 0.00 | 0.00 | 89 | 1021.6 |
| 20260830074609 | 59 | 193 | 0.0 | 2.0 | 0.00 | 0.00 | 0.00 | 90 | 1021.6 |
| 20260830073003 | 58 | 299 | 0.0 | 2.0 | 0.00 | 0.00 | 0.00 | 91 | 1021.7 |
| 20260830071606 | 58 | 300 | 0.0 | 0.0 | 0.00 | 0.00 | 0.00 | 91 | 1021.6 |
| 20260830070003 | 58 | 300 | 0.0 | 1.0 | 0.00 | 0.00 | 0.00 | 91 | 1021.4 |
| 20260830064502 | 58 | 300 | 0.0 | 0.0 | 0.00 | 0.00 | 0.00 | 90 | 1021.5 |
| 20260830063002 | 58 | 300 | 0.0 | 0.0 | 0.00 | 0.00 | 0.00 | 89 | 1021.5 |
| 20260830061628 | 58 | 300 | 0.0 | 0.0 | 0.00 | 0.00 | 0.00 | 89 | 1021.6 |
| 20260830054605 | 58 | 300 | 0.0 | 0.0 | 0.00 | 0.00 | 0.00 | 91 | 1021.7 |